When you browse on this site, cookies collect data to enhance your experience and personalize the content and advertising you see.
Visit our Privacy Policy to learn more. By continuing to use the site, you agree to this use of cookies and data.
  • In Latvia
  • List of Countries
  • For 7 days
  • Water Temperature
  • Satellite Maps
  • Weather Map
  • Weather Widgets
  • user-avatar
    Login

    Hourly Weather Egna

    Today, 20 April, Saturday

    Time Temperature Precipitation Wind Pressure Humidity
    00:00 +6°C° 0.3 mm 2 mps 753 mmHg 84%
    01:00 +5°C° 0.3 mm 2 mps 752 mmHg 88%
    02:00 +5°C° 0 mm 2 mps 752 mmHg 90%
    03:00 +5°C° 0.3 mm 2 mps 752 mmHg 92%
    04:00 +4°C° 0.3 mm 2 mps 752 mmHg 93%
    05:00 +4°C° 0.3 mm 2 mps 752 mmHg 94%
    06:00 +4°C° 0 mm 2 mps 752 mmHg 91%
    07:00 +4°C° 0 mm 2 mps 752 mmHg 88%
    08:00 +5°C° 0 mm 2 mps 752 mmHg 83%
    09:00 +6°C° 0 mm 2 mps 752 mmHg 79%
    10:00 +6°C° 0 mm 2 mps 752 mmHg 74%
    11:00 +7°C° 0 mm 2 mps 752 mmHg 70%
    12:00 +7°C° 0 mm 2 mps 753 mmHg 67%
    13:00 +7°C° 0 mm 2 mps 753 mmHg 65%
    14:00 +8°C° 0 mm 2 mps 753 mmHg 63%
    15:00 +7°C° 0 mm 2 mps 753 mmHg 63%
    16:00 +7°C° 0 mm 2 mps 753 mmHg 63%
    17:00 +7°C° 0 mm 2 mps 753 mmHg 63%
    18:00 +6°C° 0 mm 2 mps 753 mmHg 70%
    19:00 +5°C° 0 mm 1 mps 754 mmHg 77%
    20:00 +4°C° 0 mm 1 mps 754 mmHg 83%
    21:00 +4°C° 0 mm 1 mps 754 mmHg 86%
    22:00 +3°C° 0 mm 1 mps 754 mmHg 89%
    23:00 +3°C° 0 mm 1 mps 754 mmHg 91%

    Tomorrow, 21 April, Sunday

    Time Temperature Precipitation Wind Pressure Humidity
    00:00 +2°C° 0 mm 1 mps 755 mmHg 93%
    01:00 +2°C° 0 mm 1 mps 755 mmHg 94%
    02:00 +2°C° 0 mm 1 mps 755 mmHg 95%
    03:00 +2°C° 0 mm 1 mps 755 mmHg 96%
    04:00 +2°C° 0 mm 1 mps 755 mmHg 96%
    05:00 +2°C° 0 mm 1 mps 755 mmHg 97%
    06:00 +4°C° 0 mm 1 mps 756 mmHg 90%
    07:00 +6°C° 0 mm 1 mps 756 mmHg 83%
    08:00 +8°C° 0 mm 1 mps 756 mmHg 76%
    09:00 +10°C° 0 mm 1 mps 756 mmHg 68%
    10:00 +11°C° 0 mm 1 mps 756 mmHg 60%
    11:00 +13°C° 0 mm 1 mps 756 mmHg 53%
    12:00 +14°C° 0 mm 1 mps 756 mmHg 51%
    13:00 +14°C° 0 mm 1 mps 756 mmHg 49%
    14:00 +14°C° 0 mm 1 mps 756 mmHg 47%
    15:00 +14°C° 0 mm 1 mps 755 mmHg 48%
    16:00 +14°C° 0 mm 1 mps 755 mmHg 49%
    17:00 +13°C° 0 mm 1 mps 755 mmHg 51%
    18:00 +12°C° 0 mm 1 mps 755 mmHg 58%
    19:00 +10°C° 0 mm 1 mps 755 mmHg 65%
    20:00 +8°C° 0 mm 1 mps 756 mmHg 71%
    21:00 +8°C° 0 mm 1 mps 756 mmHg 74%
    22:00 +7°C° 0 mm 1 mps 756 mmHg 76%
    23:00 +7°C° 0 mm 1 mps 756 mmHg 79%

    Day after tomorrow, 22 April, Monday

    Time Temperature Precipitation Wind Pressure Humidity
    00:00 +6°C° 0 mm 1 mps 756 mmHg 81%
    01:00 +6°C° 0 mm 1 mps 756 mmHg 83%
    02:00 +5°C° 0 mm 1 mps 756 mmHg 85%
    03:00 +5°C° 0 mm 1 mps 756 mmHg 85%
    04:00 +5°C° 0 mm 1 mps 756 mmHg 86%
    05:00 +5°C° 0 mm 1 mps 756 mmHg 87%
    06:00 +7°C° 0 mm 1 mps 756 mmHg 78%
    07:00 +9°C° 0 mm 1 mps 756 mmHg 69%
    08:00 +12°C° 0 mm 1 mps 757 mmHg 61%
    09:00 +13°C° 0 mm 1 mps 756 mmHg 54%
    10:00 +14°C° 0 mm 2 mps 756 mmHg 48%
    11:00 +16°C° 0 mm 2 mps 756 mmHg 41%
    12:00 +16°C° 0 mm 2 mps 756 mmHg 40%
    13:00 +17°C° 0 mm 3 mps 756 mmHg 38%
    14:00 +17°C° 0 mm 3 mps 756 mmHg 36%
    15:00 +17°C° 0 mm 3 mps 755 mmHg 38%
    16:00 +17°C° 0 mm 2 mps 755 mmHg 41%
    17:00 +16°C° 0 mm 2 mps 755 mmHg 43%
    18:00 +14°C° 0 mm 2 mps 755 mmHg 49%
    19:00 +12°C° 0 mm 2 mps 755 mmHg 56%
    20:00 +10°C° 0 mm 2 mps 755 mmHg 62%
    21:00 +9°C° 0 mm 2 mps 755 mmHg 66%
    22:00 +8°C° 0 mm 2 mps 755 mmHg 69%
    23:00 +8°C° 0 mm 2 mps 755 mmHg 73%

    23 April, Tuesday

    Time Temperature Precipitation Wind Pressure Humidity
    00:00 +8°C° 0 mm 2 mps 755 mmHg 76%
    01:00 +7°C° 0 mm 2 mps 756 mmHg 79%
    02:00 +7°C° 0 mm 2 mps 756 mmHg 83%
    03:00 +7°C° 0 mm 2 mps 756 mmHg 81%
    04:00 +7°C° 0 mm 2 mps 756 mmHg 80%
    05:00 +7°C° 0 mm 3 mps 756 mmHg 79%
    06:00 +9°C° 0 mm 3 mps 756 mmHg 70%
    07:00 +11°C° 0 mm 4 mps 756 mmHg 62%
    08:00 +13°C° 0 mm 4 mps 756 mmHg 53%
    09:00 +14°C° 0 mm 4 mps 756 mmHg 48%
    10:00 +15°C° 0 mm 5 mps 756 mmHg 43%
    11:00 +17°C° 0 mm 5 mps 756 mmHg 39%
    12:00 +17°C° 0 mm 5 mps 756 mmHg 37%
    13:00 +19°C° 0 mm 5 mps 756 mmHg 35%
    14:00 +19°C° 0 mm 5 mps 756 mmHg 33%
    15:00 +19°C° 0 mm 4 mps 755 mmHg 35%
    16:00 +18°C° 0 mm 4 mps 755 mmHg 37%
    17:00 +18°C° 0 mm 3 mps 755 mmHg 39%
    18:00 +16°C° 0 mm 3 mps 755 mmHg 46%
    19:00 +13°C° 0 mm 3 mps 755 mmHg 52%
    20:00 +12°C° 0 mm 2 mps 756 mmHg 59%
    21:00 +10°C° 0 mm 2 mps 756 mmHg 63%
    22:00 +9°C° 0 mm 2 mps 756 mmHg 67%
    23:00 +8°C° 0 mm 2 mps 756 mmHg 71%

    24 April, Wednesday

    Time Temperature Precipitation Wind Pressure Humidity
    00:00 +8°C° 0 mm 2 mps 756 mmHg 73%
    01:00 +7°C° 0 mm 2 mps 757 mmHg 75%
    02:00 +7°C° 0 mm 2 mps 757 mmHg 77%
    03:00 +7°C° 0 mm 2 mps 757 mmHg 77%
    04:00 +7°C° 0 mm 2 mps 757 mmHg 77%
    05:00 +6°C° 0 mm 2 mps 757 mmHg 77%
    06:00 +8°C° 0 mm 3 mps 757 mmHg 69%
    07:00 +11°C° 0 mm 3 mps 757 mmHg 61%
    08:00 +13°C° 0 mm 4 mps 757 mmHg 53%
    09:00 +14°C° 0 mm 4 mps 757 mmHg 49%
    10:00 +15°C° 0 mm 4 mps 757 mmHg 45%
    11:00 +18°C° 0 mm 4 mps 757 mmHg 40%
    12:00 +18°C° 0 mm 4 mps 757 mmHg 39%
    13:00 +19°C° 0 mm 4 mps 757 mmHg 37%
    14:00 +19°C° 0 mm 3 mps 757 mmHg 35%
    15:00 +19°C° 0 mm 3 mps 757 mmHg 37%
    16:00 +18°C° 0 mm 3 mps 756 mmHg 39%
    17:00 +18°C° 0 mm 2 mps 756 mmHg 41%
    18:00 +16°C° 0 mm 2 mps 756 mmHg 47%
    19:00 +14°C° 0 mm 2 mps 756 mmHg 53%
    20:00 +12°C° 0 mm 1 mps 756 mmHg 59%
    21:00 +11°C° 0 mm 1 mps 757 mmHg 61%
    22:00 +10°C° 0 mm 1 mps 757 mmHg 63%
    23:00 +10°C° 0 mm 1 mps 757 mmHg 66%

    25 April, Thursday

    Time Temperature Precipitation Wind Pressure Humidity
    00:00 +9°C° 0 mm 1 mps 757 mmHg 67%
    01:00 +9°C° 0 mm 1 mps 757 mmHg 69%
    02:00 +8°C° 0 mm 1 mps 757 mmHg 71%
    03:00 +8°C° 0 mm 1 mps 757 mmHg 72%
    04:00 +8°C° 0 mm 1 mps 757 mmHg 73%
    05:00 +8°C° 0 mm 1 mps 757 mmHg 74%
    06:00 +10°C° 0 mm 1 mps 757 mmHg 67%
    07:00 +13°C° 0 mm 1 mps 757 mmHg 59%
    08:00 +15°C° 0 mm 1 mps 757 mmHg 52%
    09:00 +16°C° 0 mm 2 mps 757 mmHg 47%
    10:00 +18°C° 0 mm 2 mps 757 mmHg 42%
    11:00 +19°C° 0 mm 2 mps 757 mmHg 37%
    12:00 +20°C° 0 mm 2 mps 756 mmHg 36%
    13:00 +20°C° 0 mm 2 mps 756 mmHg 36%
    14:00 +21°C° 0 mm 2 mps 755 mmHg 35%
    15:00 +20°C° 0 mm 2 mps 755 mmHg 37%
    16:00 +20°C° 0 mm 2 mps 755 mmHg 40%
    17:00 +21°C° 0 mm 1 mps 754 mmHg 42%
    18:00 +18°C° 0 mm 1 mps 754 mmHg 48%
    19:00 +15°C° 0 mm 1 mps 754 mmHg 54%
    20:00 +13°C° 0 mm 1 mps 754 mmHg 60%
    21:00 +13°C° 0 mm 1 mps 754 mmHg 62%
    22:00 +12°C° 0 mm 1 mps 754 mmHg 64%
    23:00 +11°C° 0 mm 1 mps 754 mmHg 66%
    Show more